Curacao, Curacao

9:44 AM AST on October 17, 2017 (GMT -0400)
Willemstad-Hato International

Weather History for TNCC - February, 2013

Change the Weather History Date:

Friday, February 8, 2013

  Actual Average Record
Temperature  
Mean Temperature 83 °F -  
Max Temperature 88 °F 84 °F 89 °F (2001)
Min Temperature 78 °F 75 °F 73 °F (2006)
Cooling Degree Days 18    
Growing Degree Days 33 (Base 50)    
Moisture  
Dew Point 72 °F    
Average Humidity 71    
Maximum Humidity 79    
Minimum Humidity 54    
Precipitation  
Precipitation 0.00 in 0.03 in - ()
Sea Level Pressure  
Sea Level Pressure 29.90 in    
Wind  
Wind Speed 10 mph ()    
Max Wind Speed 13 mph    
Max Gust Speed -    
Visibility 7.7 miles    
Events      
Averages and records for this station are not official NWS values.
T = Trace of Precipitation, MM = Missing Value Source: Averaged Metar Reports

Daily Weather History Graph

Daily Weather History Graph

Search for Another Location

Airport or City:

Trip Planner

Search our weather history database for the weather conditions in past years. The results will help you decide how hot, cold, wet, or windy it might be!

Date:

Astronomy

Feb. 08, 2013 Rise Set
Actual Time 6:59 AM AST 6:40 PM AST
Civil Twilight 6:37 AM AST 7:02 PM AST
Nautical Twilight 6:12 AM AST 7:27 PM AST
Astronomical Twilight 5:47 AM AST 7:52 PM AST
Moon 5:17 AM AST (2/8) 5:14 PM AST (2/8)
Length of Visible Light 12h 24m
Length of Day
11h 40m
Waning Crescent, 4% of the Moon is Illuminated
Feb 8
Waning Crescent
Feb 10
New
Feb 17
First Quarter
Feb 25
Full
Mar 4
Last Quarter

Hourly Weather History & Observations

Time (AST) Temp. Heat Index Dew Point Humidity Pressure Visibility Wind Dir Wind Speed Gust Speed Precip Events Conditions
1:00 AM 80.6 °F 85.4 °F 73.4 °F 79% 29.89 in 6.2 mi East 12.7 mph - N/A   Partly Cloudy
2:00 AM 78.8 °F - 71.6 °F 78% 29.89 in 6.2 mi East 12.7 mph - N/A   Partly Cloudy
4:00 AM 78.8 °F - 71.6 °F 78% 29.86 in 6.2 mi East 12.7 mph - N/A   Partly Cloudy
5:00 AM 78.8 °F - 71.6 °F 78% 29.86 in 6.2 mi East 10.4 mph - N/A   Partly Cloudy
6:00 AM 78.8 °F - 71.6 °F 78% 29.86 in 6.2 mi East 11.5 mph - N/A   Partly Cloudy
7:00 AM 78.8 °F - 71.6 °F 78% 29.89 in 6.2 mi East 11.5 mph - N/A   Partly Cloudy
8:00 AM 81 °F - 73 °F 70% 29.92 in 25 mi East 10.4 mph - -   Scattered Clouds
8:00 AM 80.6 °F 85.4 °F 73.4 °F 79% 29.92 in 6.2 mi East 10.4 mph - N/A   Partly Cloudy
9:00 AM 82.4 °F 87.2 °F 71.6 °F 70% 29.92 in 6.2 mi East 12.7 mph - N/A   Partly Cloudy
10:00 AM 86.0 °F 93.4 °F 73.4 °F 66% 29.95 in 6.2 mi East 12.7 mph - N/A   Partly Cloudy
11:00 AM 87 °F - 73 °F 55% 29.96 in 25 mi East 11.5 mph - -   Partly Cloudy
11:00 AM 86.0 °F 93.4 °F 73.4 °F 66% 29.95 in 6.2 mi East 12.7 mph - N/A   Scattered Clouds
12:00 PM 87.8 °F 95.6 °F 73.4 °F 62% 29.95 in 6.2 mi East 10.4 mph - N/A   Scattered Clouds
1:00 PM 87.8 °F 95.6 °F 73.4 °F 62% 29.92 in 6.2 mi East 10.4 mph - N/A   Scattered Clouds
2:00 PM 86 °F - 72 °F 54% 29.90 in 25 mi East 10.4 mph - -   Partly Cloudy
2:00 PM 86.0 °F 91.8 °F 71.6 °F 62% 29.89 in 6.2 mi East 10.4 mph - N/A   Scattered Clouds
3:00 PM 84.2 °F 89.6 °F 71.6 °F 66% 29.89 in 6.2 mi East 10.4 mph - N/A   Scattered Clouds
4:00 PM 86.0 °F 91.8 °F 71.6 °F 62% 29.86 in 6.2 mi East 10.4 mph - N/A   Scattered Clouds
5:00 PM 83 °F - 71 °F 58% 29.87 in 19 mi East 11.5 mph - -   Scattered Clouds
5:00 PM 82.4 °F 86.3 °F 69.8 °F 66% 29.86 in 6.2 mi East 11.5 mph - N/A   Partly Cloudy
6:00 PM 82.4 °F 87.2 °F 71.6 °F 70% 29.86 in 6.2 mi East 9.2 mph - N/A   Partly Cloudy
7:00 PM 80.6 °F 85.4 °F 73.4 °F 79% 29.86 in 6.2 mi ESE 8.1 mph - N/A   Partly Cloudy
8:00 PM 80 °F - 73 °F 74% 29.90 in 19 mi East 9.2 mph - -   Scattered Clouds
8:00 PM 80.6 °F 85.4 °F 73.4 °F 79% 29.89 in 6.2 mi East 9.2 mph - N/A   Partly Cloudy
9:00 PM 78.8 °F - 71.6 °F 78% 29.92 in 6.2 mi East 10.4 mph - N/A   Partly Cloudy
10:00 PM 78.8 °F - 71.6 °F 78% 29.92 in 6.2 mi East 9.2 mph - N/A   Partly Cloudy
11:00 PM 79 °F - 72 °F 72%  in 19 mi East 10.4 mph - -  
11:00 PM 78.8 °F - 71.6 °F 78% 29.92 in 6.2 mi East 10.4 mph - N/A   Partly Cloudy